Location: Claremont
(35.7250°N, 81.1500°W)
Time: 01:03:13
(UTC-04:00)

Daily predictions for brighter satellites

Satellite Brightness Start Highest point End
(mag) Time Altitude Azimuth Time Altitude Azimuth Time Altitude Azimuth
ATLAS CENTAUR R/B 4.3 00:16:15 72° N 00:16:15 72° N 00:36:10 10° NE
ATLAS 3B R/B 4.5 02:25:38 26° NNW 02:25:38 26° NNW 02:30:22 10° N
CZ-3A R/B 4.0 02:45:25 65° ESE 02:45:25 65° ESE 03:20:30 10° NE
Cosmos 2369 Rocket 4.4 02:50:16 10° N 02:52:13 20° N 02:52:13 20° N
USA 234 4.2 03:16:59 10° NE 03:21:30 39° E 03:21:30 39° E
CZ-4C R/B 4.4 03:26:08 17° NNW 03:26:08 17° NNW 03:28:44 10° N
ATLAS 5 CENTAUR R/B 3.7 03:38:58 27° NNE 03:38:58 27° NNE 03:41:22 10° NNE
ARIANE 5 R/B 4.1 03:31:49 10° NNE 03:34:52 32° NE 03:34:52 32° NE
SL-16 R/B 3.2 03:41:16 48° E 03:41:37 49° ENE 03:47:33 10° N
CENTAUR R/B 3.0 03:47:14 54° ENE 03:47:14 54° ENE 03:52:42 10° NE
Cosmos 1709 Rocket 4.4 03:40:20 10° N 03:45:50 58° NE 03:45:50 58° NE
CZ-2D R/B 2.8 03:56:55 10° NNE 04:00:55 50° NE 04:00:55 50° NE
Resurs 1-4 Rocket 2.4 04:20:37 10° N 04:24:59 58° NNW 04:24:59 58° NNW
Okean O Rocket 2.7 04:27:33 10° NNE 04:31:44 39° E 04:32:24 37° ESE
COSMOS 2406 3.0 04:37:42 76° SW 04:38:06 83° WNW 04:43:54 10° NNE
Sich 1 Rocket 3.6 04:42:50 10° N 04:46:53 75° N 04:46:53 75° N
MOZ.5/SAFIR/RUBIN 5/SL-8 4.4 04:44:56 12° SSE 04:49:02 55° ENE 04:53:34 10° N
Cosmos 1408 3.2 04:45:28 10° N 04:48:48 57° NE 04:48:48 57° NE
CZ-4B R/B 3.8 04:44:19 10° NNE 04:49:28 52° E 04:52:34 23° SSE
Cosmos 1943 Rocket 2.2 04:45:11 10° NNW 04:50:12 56° W 04:50:12 56° W
Cosmos 1933 3.6 04:51:39 62° N 04:51:39 62° N 04:55:08 10° N
Cosmos 2285 Rocket 4.1 04:44:34 10° NNW 04:51:01 78° ENE 04:57:22 10° SSE
Cosmos 407 Rocket 3.9 04:51:35 34° SSE 04:53:41 59° ESE 04:58:52 10° NNE
IRS-1C Rocket 4.1 04:50:46 10° NNE 04:56:04 81° ESE 04:58:06 39° S
Okean 1-7 3.8 04:54:53 28° SSE 04:56:47 50° E 05:01:00 10° NNE
SeaSat 1 3.2 04:52:56 10° SE 04:57:42 52° ENE 05:02:29 10° NNW
Atlas Centaur 2 2.5 04:59:34 31° SSE 04:59:34 31° SSE 05:03:20 10° ESE
GPS 2-05 Rocket1 3.3 05:05:26 52° ESE 05:05:26 52° ESE 05:08:10 10° E
USA 234 3.8 05:00:00 10° NNE 05:06:10 46° NW 05:08:50 31° W
CZ-4B R/B 3.0 05:03:24 10° NNE 05:07:08 67° ESE 05:08:16 42° SSE
Aureole 3 Rocket 3.8 05:05:11 16° S 05:10:51 88° W 05:15:51 10° N
ARIANE 5 R/B 4.2 05:12:03 10° NNW 05:15:13 18° WNW 05:15:13 18° WNW
Cosmos 1656 Rocket 3.4 05:10:25 10° NNW 05:15:50 79° WSW 05:21:14 10° SSE
Cosmos 1825 2.5 05:12:10 10° NNW 05:15:22 48° WNW 05:15:22 48° WNW
Okean 2 Rocket 3.2 05:15:22 10° N 05:19:54 76° E 05:24:24 10° S
PSLV R/B 4.0 05:17:02 10° N 05:20:41 46° WNW 05:20:51 46° W
ATLAS 5 CENTAUR R/B 4.0 05:20:32 12° NW 05:21:47 13° NW 05:24:04 10° NNW
Abrixas rocket 4.3 05:19:35 11° NNW 05:22:20 27° NNE 05:25:14 10° E
Nadezhda 1 Rocket 4.1 05:21:21 25° SSW 05:25:01 56° W 05:31:16 10° N
SL-16 R/B 3.7 05:26:22 22° W 05:26:22 22° W 05:30:11 10° NW
ADEOS Rocket 3.9 05:18:48 10° NNE 05:26:35 69° ESE 05:34:07 10° S
PSLV R/B 3.3 05:28:59 35° WNW 05:30:19 79° NNE 05:33:43 10° ESE
Cosmos 1782 Rocket 3.5 05:29:00 10° NNW 05:33:15 58° W 05:37:30 10° S
PAYLOAD B 4.3 05:30:02 10° N 05:35:25 55° WNW 05:39:16 19° SW
CENTAUR R/B 3.9 05:34:26 18° WNW 05:37:22 24° NW 05:42:49 10° N
AVUM R/B 4.1 05:37:18 30° WNW 05:37:29 31° WNW 05:40:29 10° N
CZ-2D R/B 3.9 05:39:02 10° NNW 05:41:35 14° WNW 05:42:14 14° WNW
COSMOS 2487 3.4 05:44:02 28° W 05:44:53 31° WNW 05:48:08 10° N
Cosmos 2181 Rocket 4.1 05:39:10 10° S 05:45:36 89° W 05:52:01 10° N
CZ-2C R/B 4.2 05:42:00 10° SSW 05:46:03 35° W 05:50:09 10° NNW
BREEZE-M DEB (TANK) 4.0 05:45:01 22° WNW 05:46:11 32° NNW 05:50:25 10° NE
Thor Agena Rocket 3.7 05:52:44 10° S 05:57:43 52° W 06:02:49 10° NNW
Cosmos 1023 Rocket 4.4 05:54:39 10° SSW 05:59:43 87° WNW 06:04:51 10° NNE
Cosmos 1954 Rocket 4.1 05:55:16 10° SSW 06:00:20 57° WNW 06:05:29 10° N
Cosmos 2154 Rocket 4.2 05:56:05 10° NNW 06:02:09 49° W 06:08:12 10° SSW
USA 129 3.5 06:04:10 12° NNW 06:04:10 12° NNW 06:04:20 10° NNW
Cosmos 1356 4.0 06:03:08 10° N 06:06:40 63° E 06:10:09 10° SSE
Okean O Rocket 3.3 06:04:57 10° NNW 06:07:46 17° WNW 06:09:51 13° W
USA 229 DEB 4.3 06:02:08 10° SSW 06:08:53 60° ESE 06:15:43 10° NE
USA 229 4.3 06:02:15 10° SSW 06:08:59 59° ESE 06:15:49 10° NE
Cosmos 1400 Rocket 4.1 06:06:41 10° N 06:10:26 44° E 06:14:09 10° SSE
Meteor PRIRODA 3.8 06:07:22 10° N 06:11:04 56° WNW 06:14:46 10° SSW
Cosmos 2278 3.9 06:05:39 10° NNW 06:11:23 79° ENE 06:17:05 10° SSE
Meteor 2-10 Rocket 3.9 06:07:15 10° SSW 06:12:54 55° W 06:18:30 10° N
Timation 2 Rocket 3.9 06:06:42 10° SSW 06:12:58 85° WNW 06:19:03 10° NNE
CZ-4B R/B 4.2 06:09:27 10° NNE 06:13:58 85° E 06:18:20 10° S
ADEOS II 2.2 06:09:26 10° N 06:14:33 55° WNW 06:19:40 10° SSW
Okean-O 3.2 06:14:45 10° N 06:18:52 39° WNW 06:22:58 10° SW
USA 116 4.5 06:14:30 10° S 06:19:12 54° W 06:24:22 10° NNW
Feng Yun 1-1 Rocket 4.4 06:15:39 10° N 06:20:52 51° WNW 06:26:08 10° SSW
Cosmos 1850 Rocket 4.0 06:20:19 10° SSW 06:25:34 71° WNW 06:30:54 10° NNE
SL-8 Rocket 4.0 06:20:07 10° N 06:26:18 71° W 06:32:30 10° S
Cosmos 2369 3.8 06:20:42 10° NNW 06:26:28 86° WSW 06:32:12 10° SSE
Cosmos 2341 Rocket 4.5 06:22:19 10° NNW 06:28:05 39° W 06:33:53 10° SSW
Cosmos 489 Rocket 4.5 06:24:54 10° SSW 06:31:06 73° WNW 06:37:18 10° NNE
